User: anonymous   Login
Location: Caltech
(34.1382°N, 118.1253°W)
Time: 00:33:29
(UTC-08:00)
Language:

Iridium 75 - Orbit

View from above orbital plane
View from above orbital plane
View from above satellite
View from above satellite

Ground track
Ground track

The orbit data is extracted from the following two-line orbital elements,

1 25346U 98032E   14326.46507942  .00000602  00000-0  20795-3 0   754
2 25346 086.3979 256.0187 0002149 099.3297 018.0003 14.34218470865261
Epoch (UTC): 22 November 2014 11:09:42
Eccentricity: 0.0002149
inclination: 86.3979°
perigee height: 776 km
apogee height: 779 km
right ascension of ascending node: 256.0187°
argument of perigee: 99.3297°
revolutions per day: 14.34218470
mean anomaly at epoch: 18.0003°
orbit number at epoch: 86526

The dashed part of the orbit path shows where the satellite is in the earth's shadow,  

DLR